Hourly Weather Roundup
Issued by NWS Central Illinois

Home | Current Version | Previous Version | Text Only | Print | Product List | Glossary On
Versions: 1 2 3 4 5 6 7 8 9 10 11 12 13 14 15 16 17 18 19 20 21 22 23 24 25 26 27 28 29 30 31 32 33 34 35 36 37 38 39 40 41 42 43 44 45 46 47 48 49 50
000
NZUS43 KILX 140610
HWRILX

AREA WEATHER ROUNDUP
NATIONAL WEATHER SERVICE, LINCOLN IL
100 AM CDT SUN SEP 14 2014


CITY           SKY/WX    TMP DP  RH WIND       PRES   REMARKS
BLOOMINGTON    CLEAR     42  37  82 E6        30.34S
CHAMPAIGN      CLEAR     46  41  82 NE5       30.32S
6HR MIN TEMP:  44; 6HR MAX TEMP:  56;

DECATUR        PTCLDY    45  41  86 CALM      30.33R
6HR MIN TEMP:  45; 6HR MAX TEMP:  57;

FLORA          CLEAR     46  45  95 CALM      30.31S
6HR MIN TEMP:  45; 6HR MAX TEMP:  58;

GALESBURG      CLEAR     39  37  93 E3        30.31S
JACKSONVILLE   PTCLDY    46  42  87 E3        30.32F
6HR MIN TEMP:  45; 6HR MAX TEMP:  60; 6HR PCP:  0.01;

LACON          CLEAR     43  39  86 S3        30.31S
6HR MIN TEMP:  42; 6HR MAX TEMP:  56;

LAWRENCEVILLE  CLEAR     46  44  93 CALM      30.30S
6HR MIN TEMP:  46; 6HR MAX TEMP:  58;

LITCHFIELD     PTCLDY    44  43  95 CALM      30.31S
$$


CITY           SKY/WX    TMP DP  RH WIND       PRES   REMARKS
LINCOLN        PTCLDY    44  42  90 CALM      30.32S
6HR MIN TEMP:  44; 6HR MAX TEMP:  56;

MACOMB         CLEAR     39  39  99 CALM      30.33S
MATTOON        PTCLDY    48  42  80 CALM      30.31S
6HR MIN TEMP:  46; 6HR MAX TEMP:  57;

MT CARMEL AP   CLEAR     46  45  93 CALM      30.30S
OLNEY-NOBLE AP CLEAR     43  43 100 CALM      30.31S
PARIS          CLEAR     43  42  99 CALM      30.32S
6HR MIN TEMP:  42; 6HR MAX TEMP:  55;

PEORIA         CLEAR     46  42  86 CALM      30.32S
6HR MIN TEMP:  46; 6HR MAX TEMP:  57;

PONTIAC        CLEAR     43  43 100 E3        30.33S
RANTOUL        CLEAR     48  41  76 CALM      30.33R
6HR MIN TEMP:  46; 6HR MAX TEMP:  59;

ROBINSON         N/A     44  44 100 CALM      30.31S FOG
6HR MIN TEMP:  44; 6HR MAX TEMP:  58;

SPRINGFIELD    PTCLDY    45  42  89 NE3       30.32S
6HR MIN TEMP:  44; 6HR MAX TEMP:  59;

TAYLORVILLE    PTCLDY    45  41  87 CALM      30.32S
$$

...REGIONAL REPORTS...


CITY           SKY/WX    TMP DP  RH WIND       PRES   REMARKS
CHICAGO O`HARE PTCLDY    46  41  82 S3        30.33S
KANKAKEE       CLEAR     42  42  98 CALM      30.34S
MOLINE         CLEAR     41  38  89 CALM      30.31S
MOUNT VERNON   PTCLDY    45  39  81 CALM      30.31R
PITTSFIELD     PTCLDY    45  43  93 CALM      30.32R
QUINCY         CLEAR     47  39  74 SE6       30.30S
ROCKFORD       CLEAR     44  39  82 CALM      30.34S
$$


CITY           SKY/WX    TMP DP  RH WIND       PRES   REMARKS
BURLINGTON     CLEAR     42  42 100 CALM      30.30S
CEDAR RAPIDS   CLEAR     41  40  96 CALM      30.29R
DES MOINES     MOCLDY    49  43  80 S8        30.27S
KIRKSVILLE     CLEAR     42  40  92 CALM      30.30R
OTTUMWA        CLEAR     42  40  92 S3        30.29R
ST LOUIS       MOCLDY    52  45  77 CALM      30.31F
$$


CITY           SKY/WX    TMP DP  RH WIND       PRES   REMARKS
TERRE HAUTE    CLEAR     43  42  97 CALM      30.31S
EVANSVILLE     CLEAR     50  46  86 N3        30.29F
INDIANAPOLIS   PTCLDY    51  42  71 NE3       30.30S
LAFAYETTE      CLEAR     43  42  97 CALM      30.32F
MADISON        CLEAR     41  38  89 CALM      30.31R
MILWAUKEE      MOCLDY    48  41  76 SW6       30.33S
$$




USA.gov is the U.S. government's official web portal to all federal, state and local government web resources and services.